Location: Arbon
(43.0005°N, 0.7472°E)
Time: 09:04:58
(UTC+00:00)

Vanguard 2 Rocket - Pass Details

Date: 03 December 2020
Orbit: 554 x 3325 km, 32.9° (Epoch: 21 January)

Event Time Altitude Azimuth Distance (km) Brightness Sun altitude
Rises 06:39:28 0° 236° (SW) 6,589 11.0 -5.9°
Reaches altitude 10° 06:43:37 10° 231° (SW) 5,825 10.7 -5.3°
Maximum altitude 07:01:59 54° 162° (SSE) 3,794 10.4 -2.3°
Drops below altitude 10° 07:19:42 10° 92° (E) 5,659 12.1 0.5°
Sets 07:23:39 0° 88° (E) 6,401 12.3 1.1°
